Regional Weather Roundup
Issued by NWS Kansas City/Pleasant Hill, MO

Home | Current Version | Previous Version | Text Only | Print | Product List | Glossary On
Versions: 1 2 3 4 5 6 7 8 9 10 11 12 13 14 15 16 17 18 19 20 21 22 23 24 25 26 27 28 29 30 31 32 33 34 35 36 37 38 39 40 41 42 43 44 45 46 47 48 49 50
000
ASUS43 KEAX 231511
RWREAX

WEATHER ROUNDUP FOR EASTERN KANSAS AND NORTHWEST MISSOURI
NATIONAL WEATHER SERVICE KANSAS CITY/PLEASANT HILL MO
1000 AM CDT SAT MAY 23 2015

KSZ040-057-103>105-MOZ028-029-037-043-231600-
...KANSAS CITY METROPOLITAN AREA...

CITY           SKY/WX    TMP DP  RH WIND       PRES   REMARKS
K.C. INTL      CLOUDY    62  55  77 S10       30.23R
K.C. DOWNTOWN  CLOUDY    64  55  72 SE8       30.23R
LEES SUMMIT    CLOUDY    63  54  72 S8        30.24S
OLATHE - IXD   CLOUDY    60  56  86 S10       30.23F
OLATHE - OJC   CLOUDY    59  57  93 SE8       30.23R
LAWRENCE       CLOUDY    62  55  77 SE10      30.21F

$$

MOZ001>008-011>017-020>025-030>033-038>040-044>046-053-054-231600-
...NORTHERN AND CENTRAL MISSOURI...

CITY           SKY/WX    TMP DP  RH WIND       PRES   REMARKS
ST. JOSEPH     CLOUDY    59  55  87 SE8       30.24R
MOSBY            N/A     63  52  67 S8        30.24R
WARRENSBURG    CLOUDY    64  54  68 SE10      30.25S
WHITEMAN AFB   NOT AVBL
CLINTON        PTSUNNY   64  55  72 S8        30.27R
SEDALIA        CLOUDY    66  52  60 S12       30.28R
WARSAW         NOT AVBL
CHILLICOTHE      N/A     65  53  65 S8        30.27R
KIRKSVILLE     PTSUNNY   68  52  56 S12       30.28F

$$

MOZ041-047>049-056>058-063>065-088>090-097-231600-
...EASTERN AND SOUTHERN MISSOURI...

CITY           SKY/WX    TMP DP  RH WIND       PRES   REMARKS
ST. LOUIS INTL PTSUNNY   72  53  51 SE10      30.32F
SPIRIT OF STL  PTSUNNY   71  54  54 VRB5      30.30F
COLUMBIA       PTSUNNY   68  51  54 SE15      30.28S
JEFFERSON CITY CLOUDY    69  50  50 SE13      30.27F
ROLLA          CLOUDY    66  53  63 SE13      30.27F
OSAGE BEACH    CLOUDY    66  50  55 S7        30.28S
SPRINGFIELD    CLOUDY    61  51  70 S17       30.27R
BRANSON        LGT RAIN  57  57 100 SE6       30.30R FOG
JOPLIN         CLOUDY    59  57  93 SE10      30.24S
WEST PLAINS    CLOUDY    65  50  58 SE7       30.31R

$$

IAZ060-094-KSZ022-034>040-054-083-096-NEZ052-066-093-231600-
...KANSAS...SOUTHEAST NEBRASKA AND IOWA...

CITY           SKY/WX    TMP DP  RH WIND       PRES   REMARKS
TOPEKA         CLOUDY    61  56  83 SE7       30.21R
MANHATTAN      CLOUDY    61  57  87 SE9       30.18F
EMPORIA        CLOUDY    59  57  93 SE12      30.19S
CHANUTE        LGT RAIN  59  58  96 SE12      30.21F
WICHITA        LGT RAIN  58  57  97 SE13      30.14F FOG
OMAHA          CLOUDY    62  53  72 S13       30.20S
LINCOLN        CLOUDY    57  55  93 SE10      30.18F FOG
FALLS CITY     CLOUDY    60  56  86 SE12      30.21R
LAMONI         CLOUDY    64  54  69 SE6       30.25R
DES MOINES     PTSUNNY   68  52  56 S9        30.25F

$$




USA.gov is the U.S. government's official web portal to all federal, state and local government web resources and services.